カタログに戻る

AMOS 17

運用中通信GEO
NORAD 44479·PAYLOAD·🇮🇱 Israel

打ち上げ Aug 6, 2019 から Cape Canaveral Space Force Station

Loading…

TLE

最新Source: Space-Track

元期: Sep 14, 2026, 13:53 UTC

1 44479U 19050A   26257.57848103  .00000101  00000-0  00000-0 0  9993
2 44479   0.0391   2.2972 0002113 171.9596  44.5772  1.00270328 26088

AllMySatでAMOS 17をリアルタイム追跡

Download on the App Store